CLW90D YPPH-NFFN

Flight info

Callsign CLW90D
Flight time N/A
Altitude 35000
Route AMANA Y31 LAKIR Y69 BOSLI Y67 KG J141 LEC Y94 IDODA/N0477F370 Y94 PARRY Y195 DULIN W189 BN B578 TEBUR B602 ATPEN B599 AGUTA
Aircraft B77W/H-SDE1E2E3FGHIJ2J3J4J5M1RWXY/LB1D1

Departure

Time 2026-05-01 12:23
Airport Perth International Airport (YPPH)

Arrival

Time N/A
Airport Nadi International Airport (NFFN)
Time Latitude Longitude Altitude Speed Heading
2026-05-01 12:01 -31.94038 115.97312 70 ft 0 kts 151°
2026-05-01 12:14 -31.94028 115.97305 60 ft 2 kts 152°
2026-05-01 12:15 -31.94014 115.97296 59 ft 2 kts 151°
2026-05-01 12:15 -31.93994 115.97283 59 ft 2 kts 152°
2026-05-01 12:15 -31.93985 115.97277 59 ft 2 kts 158°
2026-05-01 12:15 -31.93969 115.97271 58 ft 2 kts 168°
2026-05-01 12:16 -31.93952 115.97268 57 ft 2 kts 185°
2026-05-01 12:16 -31.93939 115.97272 57 ft 1 kts 227°
2026-05-01 12:16 -31.93937 115.97274 57 ft 0 kts 235°
2026-05-01 12:17 -31.93946 115.97255 57 ft 10 kts 242°
2026-05-01 12:17 -31.93956 115.97153 56 ft 13 kts 282°
2026-05-01 12:18 -31.93935 115.97046 65 ft 13 kts 283°
2026-05-01 12:18 -31.93909 115.96940 58 ft 14 kts 302°
2026-05-01 12:18 -31.93820 115.96920 62 ft 14 kts
2026-05-01 12:18 -31.93729 115.96944 62 ft 14 kts 13°
2026-05-01 12:19 -31.93636 115.96970 63 ft 14 kts 13°
2026-05-01 12:19 -31.93544 115.96997 63 ft 14 kts 14°
2026-05-01 12:19 -31.93451 115.97025 61 ft 14 kts 14°
2026-05-01 12:19 -31.93359 115.97053 63 ft 14 kts 13°
2026-05-01 12:20 -31.93258 115.97082 59 ft 16 kts 14°
2026-05-01 12:20 -31.93144 115.97115 56 ft 17 kts 14°
2026-05-01 12:20 -31.93029 115.97148 56 ft 17 kts 13°
2026-05-01 12:20 -31.92949 115.97138 51 ft 6 kts 309°
2026-05-01 12:21 -31.92931 115.97082 55 ft 11 kts 285°
2026-05-01 12:21 -31.92898 115.96933 53 ft 23 kts 284°
2026-05-01 12:21 -31.92947 115.96821 49 ft 17 kts 200°
2026-05-01 12:21 -31.92965 115.96815 49 ft 0 kts 194°
2026-05-01 12:22 -31.92998 115.96806 53 ft 17 kts 194°
2026-05-01 12:22 -31.93235 115.96736 55 ft 61 kts 194°
2026-05-01 12:22 -31.93940 115.96533 66 ft 147 kts 194°
2026-05-01 12:22 -31.95144 115.96198 385 ft 190 kts 193°
2026-05-01 12:23 -31.96449 115.95820 1346 ft 197 kts 194°
2026-05-01 12:23 -31.97830 115.95397 2088 ft 209 kts 191°
2026-05-01 12:23 -31.99270 115.95001 2803 ft 215 kts 189°
2026-05-01 12:23 -32.00775 115.94997 3432 ft 220 kts 166°
2026-05-01 12:24 -32.02182 115.95715 4181 ft 222 kts 149°
2026-05-01 12:24 -32.03457 115.96759 4825 ft 226 kts 135°
2026-05-01 12:24 -32.04156 115.98427 5475 ft 232 kts 105°
2026-05-01 12:24 -32.04503 116.00308 6121 ft 238 kts 106°
2026-05-01 12:25 -32.04884 116.02220 6845 ft 240 kts 107°
2026-05-01 12:25 -32.05712 116.06071 8173 ft 249 kts 109°
2026-05-01 12:25 -32.06164 116.08080 8723 ft 258 kts 110°
2026-05-01 12:26 -32.06643 116.10170 9284 ft 269 kts 111°
2026-05-01 12:26 -32.07657 116.14517 10625 ft 280 kts 112°
2026-05-01 12:26 -32.08181 116.16751 11220 ft 288 kts 112°
2026-05-01 12:27 -32.08690 116.19112 11416 ft 311 kts 103°
2026-05-01 12:27 -32.07132 116.24351 11724 ft 384 kts 51°
2026-05-01 12:28 -32.03206 116.28954 12790 ft 408 kts 47°
2026-05-01 12:28 -32.01185 116.31338 13492 ft 414 kts 48°
2026-05-01 12:28 -31.97139 116.36311 14854 ft 426 kts 49°
2026-05-01 12:29 -31.95096 116.38862 15556 ft 430 kts 49°
2026-05-01 12:29 -31.93059 116.41404 16248 ft 435 kts 49°
2026-05-01 12:29 -31.88856 116.46633 17635 ft 444 kts 49°
2026-05-01 12:30 -31.84548 116.51983 18905 ft 455 kts 48°
2026-05-01 12:30 -31.82354 116.54705 19509 ft 459 kts 48°
2026-05-01 12:30 -31.80307 116.57242 20065 ft 458 kts 48°
2026-05-01 12:31 -31.78094 116.59985 20557 ft 466 kts 48°
2026-05-01 12:31 -31.75851 116.62763 21117 ft 471 kts 48°
2026-05-01 12:31 -31.73590 116.65559 21748 ft 473 kts 48°
2026-05-01 12:31 -31.71343 116.68334 22365 ft 476 kts 48°
2026-05-01 12:32 -31.69050 116.71166 22932 ft 481 kts 48°
2026-05-01 12:32 -31.64398 116.76906 24022 ft 489 kts 48°
2026-05-01 12:32 -31.62039 116.79814 24516 ft 492 kts 48°
2026-05-01 12:33 -31.59670 116.82732 25067 ft 494 kts 48°
2026-05-01 12:33 -31.57347 116.85702 25585 ft 494 kts 53°
2026-05-01 12:33 -31.55267 116.88917 26077 ft 495 kts 58°
2026-05-01 12:33 -31.53442 116.92331 26556 ft 494 kts 65°
2026-05-01 12:34 -31.51866 116.95919 27019 ft 495 kts 67°
2026-05-01 12:34 -31.50318 116.99533 27467 ft 498 kts 67°
2026-05-01 12:34 -31.48759 117.03169 27920 ft 501 kts 67°
2026-05-01 12:34 -31.47184 117.06817 28373 ft 503 kts 67°
2026-05-01 12:35 -31.45590 117.10475 28809 ft 505 kts 67°
2026-05-01 12:35 -31.44002 117.14098 29234 ft 508 kts 67°
2026-05-01 12:35 -31.42375 117.17792 29646 ft 511 kts 67°
2026-05-01 12:35 -31.40742 117.21491 30050 ft 513 kts 67°
2026-05-01 12:36 -31.39095 117.25220 30390 ft 515 kts 67°
2026-05-01 12:36 -31.37444 117.28954 30677 ft 518 kts 67°
2026-05-01 12:36 -31.35786 117.32704 30946 ft 520 kts 66°
2026-05-01 12:36 -31.34121 117.36465 31205 ft 522 kts 66°
2026-05-01 12:37 -31.32447 117.40247 31441 ft 524 kts 66°
2026-05-01 12:37 -31.30763 117.44043 31669 ft 527 kts 66°
2026-05-01 12:37 -31.29074 117.47851 31900 ft 528 kts 66°
2026-05-01 12:37 -31.27399 117.51622 32159 ft 529 kts 66°
2026-05-01 12:38 -31.25724 117.55445 32556 ft 525 kts 68°
2026-05-01 12:38 -31.24135 117.59269 33110 ft 519 kts 69°
2026-05-01 12:38 -31.22604 117.63069 33536 ft 517 kts 69°
2026-05-01 12:38 -31.21086 117.66878 33808 ft 517 kts 69°
2026-05-01 12:39 -31.19563 117.70694 34039 ft 519 kts 69°
2026-05-01 12:39 -31.18028 117.74512 34300 ft 519 kts 69°
2026-05-01 12:39 -31.16484 117.78322 34532 ft 519 kts 68°
2026-05-01 12:39 -31.14928 117.82137 34723 ft 521 kts 68°
2026-05-01 12:40 -31.13365 117.85956 34885 ft 522 kts 68°
2026-05-01 12:40 -31.11791 117.89791 35061 ft 523 kts 68°
2026-05-01 12:40 -31.10216 117.93627 35195 ft 525 kts 67°
2026-05-01 12:40 -31.08651 117.97439 35243 ft 528 kts 67°
2026-05-01 12:41 -31.05475 118.05157 35289 ft 526 kts 67°
2026-05-01 12:41 -31.02309 118.12839 35294 ft 524 kts 67°
2026-05-01 12:42 -30.99146 118.20501 35295 ft 524 kts 67°
2026-05-01 12:42 -30.95981 118.28153 35299 ft 524 kts 67°
2026-05-01 12:43 -30.92805 118.35815 35301 ft 526 kts 67°
2026-05-01 12:43 -30.89611 118.43504 35301 ft 528 kts 66°
2026-05-01 12:44 -30.86422 118.51164 35296 ft 530 kts 66°
2026-05-01 12:45 -30.79966 118.66625 35287 ft 532 kts 66°
2026-05-01 12:45 -30.76714 118.74392 35287 ft 533 kts 66°
2026-05-01 12:46 -30.73559 118.82189 35286 ft 531 kts 72°
2026-05-01 12:46 -30.71634 118.90416 35294 ft 525 kts 84°
2026-05-01 12:47 -30.71012 118.98815 35291 ft 521 kts 92°
2026-05-01 12:47 -30.70718 119.07228 35285 ft 522 kts 92°
2026-05-01 12:48 -30.70393 119.15663 35284 ft 523 kts 91°
2026-05-01 12:48 -30.70024 119.24063 35285 ft 524 kts 91°
2026-05-01 12:49 -30.69632 119.32534 35283 ft 525 kts 91°
2026-05-01 12:49 -30.69234 119.41018 35284 ft 525 kts 91°
2026-05-01 12:50 -30.68833 119.49500 35277 ft 526 kts 91°
2026-05-01 12:50 -30.68428 119.57987 35280 ft 526 kts 91°
2026-05-01 12:51 -30.68018 119.66487 35278 ft 527 kts 91°
2026-05-01 12:52 -30.67393 119.79182 35274 ft 527 kts 91°
2026-05-01 12:52 -30.66751 119.91961 35274 ft 528 kts 90°
2026-05-01 12:53 -30.66096 120.04762 35278 ft 530 kts 90°
2026-05-01 12:54 -30.65655 120.13257 35278 ft 531 kts 90°
2026-05-01 12:54 -30.64976 120.26102 35271 ft 532 kts 90°
2026-05-01 12:55 -30.64283 120.38980 35268 ft 533 kts 90°
2026-05-01 12:56 -30.63813 120.47576 35268 ft 534 kts 90°
2026-05-01 12:56 -30.63340 120.56128 35267 ft 534 kts 90°
2026-05-01 12:57 -30.62859 120.64745 35264 ft 535 kts 90°
2026-05-01 12:57 -30.62124 120.77696 35254 ft 536 kts 90°
2026-05-01 12:58 -30.61755 120.86333 35255 ft 533 kts 96°
2026-05-01 12:59 -30.63787 120.98804 35247 ft 519 kts 116°
2026-05-01 12:59 -30.67714 121.10507 35244 ft 518 kts 117°
2026-05-01 13:00 -30.71571 121.22268 35236 ft 520 kts 116°
2026-05-01 13:01 -30.75361 121.34025 35227 ft 520 kts 116°
2026-05-01 13:02 -30.78666 121.46090 35212 ft 528 kts 105°
2026-05-01 13:07 -30.81928 122.36014 35214 ft 544 kts 95°
2026-05-01 13:07 -30.82056 122.40420 35211 ft 545 kts 95°
2026-05-01 13:08 -30.82306 122.49235 35204 ft 545 kts 95°
2026-05-01 13:08 -30.82550 122.58076 35203 ft 546 kts 95°
2026-05-01 13:09 -30.82789 122.66920 35202 ft 547 kts 95°
2026-05-01 13:09 -30.83022 122.75766 35211 ft 547 kts 95°
2026-05-01 13:10 -30.83248 122.84588 35199 ft 549 kts 95°
2026-05-01 13:10 -30.83470 122.93467 35189 ft 550 kts 95°
2026-05-01 13:11 -30.83686 123.02369 35195 ft 550 kts 95°
2026-05-01 13:11 -30.83896 123.11287 35183 ft 552 kts 94°
2026-05-01 13:12 -30.84101 123.20220 35184 ft 553 kts 94°
2026-05-01 13:12 -30.84300 123.29179 35187 ft 554 kts 94°
2026-05-01 13:13 -30.84492 123.38103 35177 ft 555 kts 94°
2026-05-01 13:13 -30.84680 123.47105 35174 ft 556 kts 94°
2026-05-01 13:14 -30.84862 123.56121 35173 ft 557 kts 94°
2026-05-01 13:14 -30.85038 123.65146 35168 ft 558 kts 94°
2026-05-01 13:15 -30.85202 123.74191 35160 ft 559 kts 94°
2026-05-01 13:15 -30.85358 123.83250 35166 ft 560 kts 93°
2026-05-01 13:16 -30.85507 123.92258 35159 ft 561 kts 93°
2026-05-01 13:16 -30.85653 124.01342 35153 ft 561 kts 93°
2026-05-01 13:17 -30.85926 124.19555 35155 ft 563 kts 93°
2026-05-01 13:18 -30.86114 124.33243 35146 ft 565 kts 92°
2026-05-01 13:18 -30.86232 124.42330 35144 ft 566 kts 92°
2026-05-01 13:19 -30.86343 124.51519 35144 ft 567 kts 92°
2026-05-01 13:20 -30.86498 124.65244 35133 ft 568 kts 92°
2026-05-01 13:20 -30.86594 124.74453 35131 ft 568 kts 92°
2026-05-01 13:21 -30.86726 124.88268 35133 ft 569 kts 92°
2026-05-01 13:21 -30.86806 124.97486 35125 ft 570 kts 92°
2026-05-01 13:22 -30.86879 125.06717 35120 ft 570 kts 91°
2026-05-01 13:22 -30.86946 125.15962 35120 ft 571 kts 91°
2026-05-01 13:23 -30.87006 125.25216 35118 ft 572 kts 91°
2026-05-01 13:23 -30.87060 125.34482 35118 ft 573 kts 91°
2026-05-01 13:24 -30.87107 125.43706 35113 ft 573 kts 91°
2026-05-01 13:25 -30.87165 125.57641 35108 ft 574 kts 91°
2026-05-01 13:25 -30.87196 125.66940 35104 ft 574 kts 91°
2026-05-01 13:26 -30.87220 125.76177 35106 ft 574 kts 90°
2026-05-01 13:26 -30.87239 125.85479 35103 ft 574 kts 90°
2026-05-01 13:27 -30.87247 125.94768 35098 ft 574 kts 90°
2026-05-01 13:27 -30.87238 126.08707 35095 ft 574 kts 90°
2026-05-01 13:28 -30.87216 126.22643 35093 ft 574 kts 90°
2026-05-01 13:29 -30.87166 126.41162 35087 ft 574 kts 89°
2026-05-01 13:31 -30.87040 126.69042 35081 ft 574 kts 89°
2026-05-01 13:32 -30.86889 126.92272 35076 ft 574 kts 88°
2026-05-01 13:33 -30.86697 127.15467 35073 ft 574 kts 88°
2026-05-01 13:34 -30.86514 127.34062 35066 ft 574 kts 88°
2026-05-01 13:35 -30.86358 127.48016 35058 ft 573 kts 87°
2026-05-01 13:36 -30.86189 127.61922 35055 ft 572 kts 87°
2026-05-01 13:36 -30.86005 127.75770 35052 ft 571 kts 86°
2026-05-01 13:37 -30.85874 127.85019 35052 ft 571 kts 86°
2026-05-01 13:37 -30.85737 127.94257 35043 ft 570 kts 86°
2026-05-01 13:38 -30.85521 128.08031 35044 ft 569 kts 86°
2026-05-01 13:39 -30.85482 128.17261 35047 ft 570 kts 88°
2026-05-01 13:39 -30.85658 128.26491 35049 ft 570 kts 89°
2026-05-01 13:40 -30.85846 128.35720 35042 ft 570 kts 88°
2026-05-01 13:40 -30.85984 128.44955 35039 ft 570 kts 88°
2026-05-01 13:41 -30.86093 128.54184 35036 ft 570 kts 88°
2026-05-01 13:41 -30.86191 128.63365 35028 ft 570 kts 88°
2026-05-01 13:42 -30.86288 128.72608 35026 ft 570 kts 88°
2026-05-01 13:42 -30.86381 128.81837 35024 ft 570 kts 88°
2026-05-01 13:43 -30.86468 128.91056 35014 ft 570 kts 87°
2026-05-01 13:43 -30.86547 129.00275 35020 ft 569 kts 87°
2026-05-01 13:44 -30.86620 129.09481 35013 ft 568 kts 87°
2026-05-01 13:44 -30.86685 129.18642 35013 ft 568 kts 87°
2026-05-01 13:45 -30.86745 129.27832 35002 ft 567 kts 87°
2026-05-01 13:45 -30.86798 129.37015 35010 ft 567 kts 86°
2026-05-01 13:46 -30.86844 129.46199 35001 ft 567 kts 86°
2026-05-01 13:46 -30.86884 129.55368 34997 ft 566 kts 86°
2026-05-01 13:47 -30.86917 129.64477 34997 ft 566 kts 86°
2026-05-01 13:47 -30.86945 129.73637 34991 ft 565 kts 86°
2026-05-01 13:48 -30.86965 129.82779 34984 ft 564 kts 86°
2026-05-01 13:48 -30.86979 129.91911 34978 ft 563 kts 86°
2026-05-01 13:49 -30.86987 130.01034 34974 ft 563 kts 86°
2026-05-01 13:49 -30.86988 130.10155 34969 ft 563 kts 86°
2026-05-01 13:50 -30.86983 130.19209 34975 ft 563 kts 85°
2026-05-01 13:50 -30.86971 130.28330 34978 ft 564 kts 85°
2026-05-01 13:51 -30.86953 130.37470 34964 ft 564 kts 85°
2026-05-01 13:51 -30.86929 130.46606 34959 ft 564 kts 85°
2026-05-01 13:52 -30.86898 130.55743 34958 ft 564 kts 85°
2026-05-01 13:52 -30.86861 130.64820 34956 ft 564 kts 85°
2026-05-01 13:53 -30.86818 130.73947 34950 ft 564 kts 85°
2026-05-01 13:53 -30.86741 130.87622 34941 ft 562 kts 85°
2026-05-01 13:54 -30.86682 130.96725 34938 ft 561 kts 85°
2026-05-01 13:54 -30.86617 131.05808 34929 ft 560 kts 85°
2026-05-01 13:55 -30.86545 131.14867 34926 ft 559 kts 84°
2026-05-01 13:55 -30.86481 131.22385 34926 ft 558 kts 84°
2026-05-01 13:56 -30.86384 131.32881 34924 ft 558 kts 84°
2026-05-01 13:56 -30.86309 131.40440 34920 ft 557 kts 84°
2026-05-01 13:57 -30.86214 131.49404 34916 ft 557 kts 84°
2026-05-01 13:57 -30.86112 131.58417 34920 ft 557 kts 84°
2026-05-01 13:58 -30.86005 131.67441 34916 ft 557 kts 84°
2026-05-01 13:58 -30.85891 131.76455 34914 ft 557 kts 84°
2026-05-01 13:59 -30.85771 131.85468 34909 ft 557 kts 84°
2026-05-01 13:59 -30.85640 131.94471 34913 ft 556 kts 84°
2026-05-01 14:00 -30.85503 132.03465 34910 ft 556 kts 84°
2026-05-01 14:00 -30.85361 132.12446 34911 ft 555 kts 84°
2026-05-01 14:01 -30.85214 132.21356 34913 ft 554 kts 84°
2026-05-01 14:01 -30.85060 132.30330 34909 ft 554 kts 84°
2026-05-01 14:02 -30.84899 132.39304 34904 ft 555 kts 84°
2026-05-01 14:02 -30.84731 132.48291 34910 ft 556 kts 84°
2026-05-01 14:03 -30.84557 132.57310 34902 ft 559 kts 84°
2026-05-01 14:03 -30.84377 132.66372 34899 ft 561 kts 84°
2026-05-01 14:04 -30.84189 132.75473 34897 ft 563 kts 84°
2026-05-01 14:04 -30.83995 132.84537 34901 ft 564 kts 84°
2026-05-01 14:05 -30.83795 132.93667 34887 ft 565 kts 84°
2026-05-01 14:05 -30.83588 133.02805 34885 ft 565 kts 84°
2026-05-01 14:06 -30.83374 133.11938 34879 ft 564 kts 84°
2026-05-01 14:06 -30.83154 133.21064 34879 ft 563 kts 84°
2026-05-01 14:07 -30.82929 133.30110 34873 ft 562 kts 83°
2026-05-01 14:08 -30.82578 133.43751 34870 ft 562 kts 83°
2026-05-01 14:08 -30.82336 133.52834 34870 ft 563 kts 83°
2026-05-01 14:09 -30.82087 133.61966 34875 ft 564 kts 83°
2026-05-01 14:09 -30.81833 133.71090 34875 ft 565 kts 83°
2026-05-01 14:10 -30.81571 133.80228 34886 ft 565 kts 83°
2026-05-01 14:10 -30.81302 133.89382 34872 ft 566 kts 83°
2026-05-01 14:11 -30.81030 133.98488 34890 ft 567 kts 83°
2026-05-01 14:11 -30.80606 134.12235 34898 ft 567 kts 83°
2026-05-01 14:12 -30.80316 134.21393 34897 ft 567 kts 83°
2026-05-01 14:12 -30.80019 134.30560 34898 ft 567 kts 83°
2026-05-01 14:13 -30.79767 134.38178 34898 ft 567 kts 83°
2026-05-01 14:13 -30.79405 134.48897 34909 ft 567 kts 83°
2026-05-01 14:14 -30.79091 134.57998 34909 ft 567 kts 83°
2026-05-01 14:14 -30.78768 134.67174 34911 ft 568 kts 83°
2026-05-01 14:15 -30.78438 134.76346 34906 ft 568 kts 82°
2026-05-01 14:15 -30.78102 134.85520 34908 ft 568 kts 82°
2026-05-01 14:16 -30.77772 134.94354 34909 ft 568 kts 82°
2026-05-01 14:16 -30.77423 135.03534 34912 ft 568 kts 82°
2026-05-01 14:17 -30.77068 135.12708 34908 ft 568 kts 82°
2026-05-01 14:17 -30.76708 135.21828 34913 ft 569 kts 82°
2026-05-01 14:18 -30.76338 135.31030 34914 ft 569 kts 82°
2026-05-01 14:18 -30.76027 135.38663 34909 ft 569 kts 82°
2026-05-01 14:19 -30.75581 135.49405 34912 ft 569 kts 82°
2026-05-01 14:19 -30.75194 135.58587 34908 ft 568 kts 82°
2026-05-01 14:20 -30.74600 135.72337 34910 ft 567 kts 81°
2026-05-01 14:21 -30.74197 135.81487 34909 ft 567 kts 81°
2026-05-01 14:21 -30.73790 135.90588 34909 ft 567 kts 81°
2026-05-01 14:22 -30.73164 136.04317 34921 ft 567 kts 81°
2026-05-01 14:22 -30.72737 136.13474 34916 ft 567 kts 81°
2026-05-01 14:23 -30.72304 136.22635 34924 ft 567 kts 81°
2026-05-01 14:23 -30.71866 136.31792 34920 ft 568 kts 81°
2026-05-01 14:24 -30.71420 136.40962 34923 ft 568 kts 81°
2026-05-01 14:24 -30.70967 136.50140 34930 ft 569 kts 81°
2026-05-01 14:25 -30.70508 136.59318 34931 ft 569 kts 81°
2026-05-01 14:25 -30.70042 136.68504 34939 ft 570 kts 81°
2026-05-01 14:26 -30.69332 136.82244 34950 ft 570 kts 81°
2026-05-01 14:27 -30.68848 136.91458 34944 ft 570 kts 81°
2026-05-01 14:27 -30.68359 137.00658 34953 ft 570 kts 81°
2026-05-01 14:28 -30.67612 137.14465 34950 ft 570 kts 81°
2026-05-01 14:28 -30.67106 137.23655 34950 ft 570 kts 81°
2026-05-01 14:29 -30.66597 137.32806 34963 ft 570 kts 81°
2026-05-01 14:30 -30.65554 137.51171 34961 ft 569 kts 81°
2026-05-01 14:31 -30.64756 137.64934 34964 ft 569 kts 81°
2026-05-01 14:31 -30.64219 137.74043 34963 ft 568 kts 81°
2026-05-01 14:32 -30.63673 137.83205 34969 ft 568 kts 81°
2026-05-01 14:32 -30.63119 137.92378 34976 ft 569 kts 81°
2026-05-01 14:33 -30.62560 138.01542 34983 ft 569 kts 81°
2026-05-01 14:33 -30.61994 138.10708 34986 ft 569 kts 81°
2026-05-01 14:34 -30.61426 138.19814 34992 ft 569 kts 81°
2026-05-01 14:34 -30.60848 138.28977 35002 ft 569 kts 81°
2026-05-01 14:35 -30.60263 138.38144 34998 ft 569 kts 81°
2026-05-01 14:35 -30.59514 138.47262 35011 ft 564 kts 75°
2026-05-01 14:36 -30.58176 138.56206 35019 ft 562 kts 73°
2026-05-01 14:36 -30.56765 138.65138 35029 ft 562 kts 73°
2026-05-01 14:37 -30.55384 138.74081 35040 ft 563 kts 74°
2026-05-01 14:37 -30.54035 138.82975 35030 ft 564 kts 74°
2026-05-01 14:38 -30.52678 138.91940 35044 ft 564 kts 74°
2026-05-01 14:38 -30.51310 139.00906 35045 ft 564 kts 74°
2026-05-01 14:39 -30.49934 139.09879 35036 ft 563 kts 75°
2026-05-01 14:39 -30.48549 139.18829 35051 ft 563 kts 74°
2026-05-01 14:40 -30.47172 139.27704 35053 ft 563 kts 74°
2026-05-01 14:40 -30.45782 139.36632 35040 ft 563 kts 74°
2026-05-01 14:41 -30.44384 139.45564 35036 ft 564 kts 74°
2026-05-01 14:41 -30.42975 139.54518 35041 ft 564 kts 74°
2026-05-01 14:42 -30.41561 139.63468 35033 ft 565 kts 74°
2026-05-01 14:42 -30.40139 139.72423 35035 ft 565 kts 74°
2026-05-01 14:43 -30.38721 139.81322 35032 ft 565 kts 74°
2026-05-01 14:43 -30.37288 139.90268 35032 ft 565 kts 74°
2026-05-01 14:44 -30.35848 139.99219 35034 ft 565 kts 74°
2026-05-01 14:44 -30.33679 140.12622 35035 ft 564 kts 74°
2026-05-01 14:45 -30.31500 140.25993 35049 ft 563 kts 74°
2026-05-01 14:46 -30.30040 140.34905 35034 ft 563 kts 74°
2026-05-01 14:46 -30.28089 140.46757 35043 ft 563 kts 74°
2026-05-01 14:47 -30.26376 140.57102 35054 ft 563 kts 74°
2026-05-01 14:48 -30.24394 140.69009 35046 ft 563 kts 74°
2026-05-01 14:48 -30.22169 140.82296 35051 ft 563 kts 75°
2026-05-01 14:49 -30.19168 141.00095 35055 ft 564 kts 75°
2026-05-01 14:50 -30.16176 141.17833 35061 ft 564 kts 75°
2026-05-01 14:51 -30.13913 141.31165 35066 ft 563 kts 75°
2026-05-01 14:52 -30.11637 141.44477 35073 ft 562 kts 75°
2026-05-01 14:53 -30.09350 141.57760 35079 ft 562 kts 75°
2026-05-01 14:53 -30.07818 141.66615 35073 ft 562 kts 75°
2026-05-01 14:54 -30.06283 141.75456 35079 ft 561 kts 75°
2026-05-01 14:54 -30.04752 141.84233 35081 ft 561 kts 75°
2026-05-01 14:55 -30.03208 141.93049 35087 ft 560 kts 75°
2026-05-01 14:55 -30.01657 142.01865 35085 ft 560 kts 75°
2026-05-01 14:56 -30.00101 142.10675 35090 ft 560 kts 75°
2026-05-01 14:56 -29.98541 142.19475 35093 ft 560 kts 75°
2026-05-01 14:57 -29.96985 142.28216 35093 ft 560 kts 75°
2026-05-01 14:57 -29.94623 142.41413 35098 ft 560 kts 75°
2026-05-01 14:58 -29.93042 142.50209 35101 ft 560 kts 75°
2026-05-01 14:58 -29.91455 142.59000 35097 ft 560 kts 75°
2026-05-01 14:59 -29.89866 142.67776 35107 ft 559 kts 75°
2026-05-01 14:59 -29.88277 142.76489 35104 ft 559 kts 75°
2026-05-01 15:00 -29.85864 142.89637 35106 ft 558 kts 75°
2026-05-01 15:01 -29.84253 142.98383 35113 ft 558 kts 75°
2026-05-01 15:01 -29.82637 143.07121 35116 ft 557 kts 75°
2026-05-01 15:02 -29.81018 143.15845 35115 ft 557 kts 75°
2026-05-01 15:02 -29.79394 143.24561 35120 ft 557 kts 75°
2026-05-01 15:03 -29.77772 143.33229 35123 ft 557 kts 75°
2026-05-01 15:03 -29.76137 143.41937 35118 ft 556 kts 75°
2026-05-01 15:04 -29.74497 143.50637 35141 ft 556 kts 76°
2026-05-01 15:04 -29.72852 143.59336 35141 ft 556 kts 76°
2026-05-01 15:05 -29.71198 143.68045 35136 ft 556 kts 76°
2026-05-01 15:05 -29.69543 143.76725 35142 ft 555 kts 76°
2026-05-01 15:06 -29.67896 143.85332 35140 ft 555 kts 76°
2026-05-01 15:06 -29.66232 143.93998 35143 ft 554 kts 76°
2026-05-01 15:07 -29.64564 144.02651 35148 ft 554 kts 76°
2026-05-01 15:07 -29.62892 144.11292 35149 ft 553 kts 76°
2026-05-01 15:08 -29.61215 144.19929 35152 ft 553 kts 76°
2026-05-01 15:08 -29.59532 144.28560 35152 ft 553 kts 76°
2026-05-01 15:09 -29.57856 144.37133 35150 ft 553 kts 76°
2026-05-01 15:09 -29.56162 144.45757 35156 ft 554 kts 76°
2026-05-01 15:10 -29.54462 144.54386 35161 ft 554 kts 76°
2026-05-01 15:10 -29.51898 144.67343 35165 ft 554 kts 76°
2026-05-01 15:11 -29.49321 144.80295 35165 ft 554 kts 76°
2026-05-01 15:12 -29.47609 144.88863 35168 ft 554 kts 76°
2026-05-01 15:12 -29.45013 145.01797 35166 ft 554 kts 76°
2026-05-01 15:14 -29.40657 145.23321 35174 ft 553 kts 76°
2026-05-01 15:14 -29.38043 145.36152 35175 ft 553 kts 76°
2026-05-01 15:15 -29.34524 145.53323 35178 ft 553 kts 76°
2026-05-01 15:16 -29.30984 145.70476 35182 ft 553 kts 76°
2026-05-01 15:18 -29.26528 145.91906 35184 ft 553 kts 76°
2026-05-01 15:19 -29.22953 146.08966 35186 ft 553 kts 77°
2026-05-01 15:19 -29.20245 146.21816 35191 ft 552 kts 77°
2026-05-01 15:20 -29.17530 146.34633 35190 ft 552 kts 77°
2026-05-01 15:21 -29.15713 146.43173 35190 ft 552 kts 77°
2026-05-01 15:21 -29.13892 146.51706 35193 ft 552 kts 77°
2026-05-01 15:22 -29.11164 146.64442 35194 ft 552 kts 77°
2026-05-01 15:22 -29.09324 146.72968 35191 ft 552 kts 77°
2026-05-01 15:23 -29.07480 146.81489 35193 ft 552 kts 77°
2026-05-01 15:23 -29.05636 146.89989 35196 ft 551 kts 77°
2026-05-01 15:24 -29.03782 146.98509 35199 ft 551 kts 77°
2026-05-01 15:24 -29.01938 147.06953 35198 ft 551 kts 77°
2026-05-01 15:25 -29.00077 147.15447 35199 ft 551 kts 77°
2026-05-01 15:25 -28.98212 147.23934 35203 ft 550 kts 77°
2026-05-01 15:26 -28.96344 147.32411 35205 ft 550 kts 77°
2026-05-01 15:26 -28.94470 147.40881 35209 ft 550 kts 77°
2026-05-01 15:27 -28.92592 147.49347 35211 ft 549 kts 77°
2026-05-01 15:28 -28.89782 147.61964 35210 ft 549 kts 77°
2026-05-01 15:28 -28.87893 147.70407 35212 ft 549 kts 77°
2026-05-01 15:29 -28.85053 147.83058 35216 ft 548 kts 77°
2026-05-01 15:30 -28.81577 147.98463 35214 ft 547 kts 77°
2026-05-01 15:31 -28.75530 148.25052 35224 ft 546 kts 77°
2026-05-01 15:32 -28.71697 148.41769 35222 ft 546 kts 77°
2026-05-01 15:34 -28.65915 148.66801 35229 ft 545 kts 77°